#timestamp,LO_Frequency,Hit 
1504141215.5,286047003.9,N
1504141235.3,286047004.2,N
1504141255.2,286047004.3,N
1504141305.9,286047000.0,E
1504141315.8,286046998.6,N
1504141335.7,286047001.2,P
1504141355.5,286046998.5,N
1504141375.3,286047001.2,N
1504141395.2,286046999.9,N
1504141415.9,286047000.0,N
1504141435.7,286047002.8,N
1504141455.6,286047003.9,N
1504141475.4,286047001.9,N
1504141495.2,286046999.8,N
1504141515.1,286047002.2,N
1504141516.0,286047002.2,N
1504141535.8,286047003.5,N
1504141555.1,286047003.8,N
1504141575.9,286047003.4,N
1504141595.7,286047003.7,N
1504141615.5,286047001.6,N
1504141635.4,286047001.6,N
1504141655.2,286047004.3,N
1504141675.0,286047001.4,N
1504141675.9,286047001.4,N
1504141695.7,286047003.9,N
1504141715.6,286047001.6,N
1504141735.4,286047003.4,N
1504141755.2,286047003.5,N
1504141775.1,286047004.0,N
1504141776.0,286047004.0,N
1504141795.8,286047004.1,N
1504141815.6,286047003.7,N
1504141835.5,286047005.0,N
1504141855.3,286047002.9,N
1504141875.1,286047005.5,P
1504141895.9,286047003.5,N
1504141915.7,286047001.8,N
1504141935.5,286047002.2,N
1504141955.4,286047001.7,N
1504141975.2,286047004.2,P
1504141995.0,286047001.4,N
1504141995.9,286047001.4,N
1504142015.9,286047002.2,N
1504142035.7,286047002.0,N
1504142055.5,286047001.5,N
1504142075.4,286047000.4,N
1504142095.2,286046999.1,N
1504142115.0,286047000.0,N
1504142115.9,286047000.0,N
1504142135.7,286047000.3,N
1504142155.6,286046999.7,N
1504142175.4,286047000.4,N
1504142195.2,286047003.8,N
1504142215.1,286047005.2,P
1504142216.0,286047005.2,N
1504142235.8,286047001.7,N
1504142255.6,286046999.8,N
1504142275.5,286047000.2,N
1504142295.3,286047002.7,N
1504142315.1,286047000.0,N
1504142335.9,286046998.3,N
1504142355.7,286047000.4,N
1504142375.5,286046999.7,N
1504142395.4,286047000.9,N
1504142415.2,286047001.2,N
1504142435.0,286047002.6,N
1504142435.9,286047002.6,N
1504142455.8,286047001.1,N
1504142475.6,286047002.6,N
1504142495.4,286047004.2,N
1504142515.3,286047001.8,N
1504142535.1,286047002.6,N
1504142536.0,286047002.6,N
1504142555.8,286047000.7,N
1504142575.6,286047001.6,N
1504142595.5,286047003.9,N
1504142615.3,286047004.4,N
1504142635.1,286047002.0,N
1504142655.9,286047001.8,N
1504142675.7,286047001.7,N
1504142695.5,286047003.5,N
1504142715.4,286047003.1,N
1504142735.2,286047004.8,N
1504142755.0,286047004.3,N
1504142755.9,286047004.3,N
1504142775.8,286047004.2,N
1504142795.6,286047004.7,N
1504142815.4,286047001.7,N
1504142835.3,286047003.0,N
1504142855.1,286047005.9,P
1504142875.8,286047003.5,N
1504142895.7,286047005.0,P
1504142915.5,286047002.9,N
1504142935.3,286047005.8,P
1504142955.2,286046999.7,N
1504142975.9,286047002.3,N
1504142995.7,286046999.8,N
1504143015.6,286047003.8,N
1504143035.4,286047003.0,N
1504143055.2,286047002.0,N
1504143075.1,286047005.9,P
1504143076.0,286047005.9,P
1504143095.8,286047004.3,N
1504143115.6,286047003.1,N
1504143135.5,286047003.0,N
1504143155.3,286047002.8,N
1504143175.1,286047000.4,N
1504143195.8,286047002.0,N
1504143215.7,286047002.1,N
1504143235.5,286046999.4,N
1504143255.3,286046997.5,N
1504143275.2,286046995.3,N
1504143295.0,286046994.9,N
1504143295.9,286046994.9,N
1504143315.7,286046994.9,N
1504143335.6,286047001.1,N
1504143355.4,286047004.1,N
1504143375.2,286047000.8,N
1504143395.1,286046999.0,N
1504143396.0,286046999.0,N
1504143415.8,286046998.5,N
1504143435.6,286046998.8,N
1504143455.5,286046999.4,N
1504143475.3,286047001.1,N
1504143495.1,286047001.2,N
1504143515.9,286046999.7,N
1504143535.7,286046999.7,N
1504143555.5,286046999.9,N
1504143575.3,286047005.6,N
1504143595.2,286047003.7,N
1504143615.0,286047001.8,N
1504143615.9,286047001.8,N
1504143635.7,286047001.7,N
1504143655.6,286047001.8,N
1504143675.4,286047000.2,N
1504143695.2,286047002.8,N
1504143715.1,286047000.2,N
1504143716.0,286047000.2,N
1504143735.8,286047000.9,N
1504143755.6,286047004.3,N
1504143775.5,286047001.1,N
1504143795.3,286047001.2,N
1504143815.1,286046998.6,N
1504143835.9,286046998.8,N
1504143855.7,286046994.9,N
1504143875.5,286046996.1,N
1504143895.4,286046994.0,N
1504143915.2,286046994.0,N
1504143935.0,286046994.7,N
1504143935.9,286046994.7,N
1504143955.8,286046992.2,N
1504143975.6,286046994.7,N
1504143995.4,286046996.2,N
1504144015.2,286046995.1,N
1504144035.1,286046997.5,N
1504144036.0,286046997.5,N
1504144055.8,286046999.1,N
1504144075.6,286046998.5,N
1504144095.5,286046996.9,N
1504144115.3,286046995.1,N
1504144135.1,286046994.5,N
1504144155.9,286046993.6,N
1504144175.7,286046994.6,N
1504144195.5,286046994.1,N
1504144215.4,286046993.8,N
1504144235.6,286046993.9,N
1504144255.4,286046996.2,N
1504144275.3,286046995.9,N
1504144295.1,286046993.4,N
1504144315.8,286046994.3,N
1504144335.7,286046994.9,N
1504144355.5,286046996.1,N
1504144375.3,286046993.7,P
1504144395.2,286046998.1,N
1504144415.0,286047000.2,N
1504144415.9,286047000.2,N
1504144435.7,286047002.2,N
1504144455.6,286047002.6,N
1504144475.4,286047001.5,N
1504144495.2,286047004.7,N
1504144515.1,286047002.9,N
1504144516.0,286047002.9,N
1504144535.8,286047004.1,N
1504144555.6,286047003.1,N
1504144575.5,286047003.8,N
1504144595.3,286047007.1,N
1504144615.1,286047007.4,N
1504144635.9,286047005.4,N
1504144655.7,286047005.8,N
1504144675.5,286047005.0,N
1504144695.3,286047006.1,N
1504144715.2,286047007.6,N
1504144735.0,286047004.5,N
1504144735.9,286047004.5,N
1504144755.7,286047007.5,N
1504144775.6,286047010.1,N
1504144795.4,286047009.8,N
